EW5168 Weather Reports


time (UTC)temp
F
wind
direction
speed
knots
gust
knots
rain 1hr
in
rain 24hr
in
rain mn
in
humidity
%
barometer
mb
20260509173753 86 225 0.9 2.6 0.00 0.00 0.00 36 1010.6
20260509172645 86 194 0.9 1.7 0.00 0.00 0.00 36 1010.7
20260509172146 86 339 0.9 1.7 0.00 0.00 0.00 36 1010.7
20260509171646 86 348 0.9 2.6 0.00 0.00 0.00 35 1010.7
20260509171143 85 311 0.9 2.6 0.00 0.00 0.00 35 1010.7
20260509170643 85 194 0.9 1.7 0.00 0.00 0.00 35 1010.7
20260509170143 84 238 0.9 1.7 0.00 0.00 0.00 35 1010.7
20260509165648 84 340 0.9 2.6 0.00 0.00 0.00 34 1010.8
20260509165643 84 331 0.9 2.6 0.00 0.00 0.00 35 1010.8
20260509164641 84 346 0.9 1.7 0.00 0.00 0.00 33 1010.8
20260509164137 83 322 0.9 2.6 0.00 0.00 0.00 32 1010.8
20260509163635 83 302 0.9 2.6 0.00 0.00 0.00 30 1010.8
20260509163139 82 329 0.9 2.6 0.00 0.00 0.00 27 1010.9
20260509163135 82 329 0.9 1.7 0.00 0.00 0.00 28 1010.9
20260509162133 82 332 0.9 2.6 0.00 0.00 0.00 26 1010.9
20260509161633 81 338 0.9 1.7 0.00 0.00 0.00 22 1010.9
20260509161131 81 321 0.9 1.7 0.00 0.00 0.00 23 1010.9
20260509160629 80 11 0.9 1.7 0.00 0.00 0.00 18 1011.0
20260509160131 79 306 0.9 2.6 0.00 0.00 0.00 13 1011.0
20260509160128 80 22 0.9 2.6 0.00 0.00 0.00 17 1011.0
20260509155125 79 57 0.0 1.7 0.00 0.00 0.00 5 1011.0
20260509154624 78 318 0.0 1.7 0.00 0.00 0.00 1 1011.1
20260509154129 77 320 0.9 2.6 0.00 0.00 0.00 1 1011.1
20260509154125 78 320 0.9 2.6 0.00 0.00 0.00 1 1011.1
20260509153128 76 5 0.0 1.7 0.00 0.00 0.00 1 1011.1
20260509153123 77 328 0.0 2.6 0.00 0.00 0.00 1 1011.1
20260509152121 76 12 0.0 1.7 0.00 0.00 0.00 1 1011.0
20260509151619 76 323 0.9 1.7 0.00 0.00 0.00 1 1011.0
20260509151118 76 50 0.9 2.6 0.00 0.00 0.00 1 1011.1
20260509150619 75 329 0.9 2.6 0.00 0.00 0.00 1 1011.0
20260509150119 75 82 0.9 2.6 0.00 0.00 0.00 1 1011.0
20260509145619 75 339 0.9 2.6 0.00 0.00 0.00 1 1010.9
20260509145119 75 336 0.0 2.6 0.00 0.00 0.00 1 1010.8
20260509144619 74 339 0.9 2.6 0.00 0.00 0.00 1 1010.7
20260509144119 74 60 0.9 3.5 0.00 0.00 0.00 1 1010.7
20260509143619 74 66 0.9 3.5 0.00 0.00 0.00 1 1010.6
20260509143121 73 67 0.9 2.6 0.00 0.00 0.00 1 1010.6
20260509143117 73 71 0.9 2.6 0.00 0.00 0.00 1 1010.5
20260509142119 73 315 0.9 2.6 0.00 0.00 0.00 1 1010.6
20260509142115 73 9 0.9 2.6 0.00 0.00 0.00 1 1010.6
20260509141115 73 313 0.9 2.6 0.00 0.00 0.00 1 1010.6
20260509140614 72 319 0.0 1.7 0.00 0.00 0.00 1 1010.6
20260509140115 72 42 0.0 1.7 0.00 0.00 0.00 1 1010.7
20260509135613 72 42 0.0 1.7 0.00 0.00 0.00 1 1010.7
20260509135113 72 317 0.9 1.7 0.00 0.00 0.00 1 1010.6
20260509134613 72 332 0.9 1.7 0.00 0.00 0.00 1 1010.7
20260509134112 72 332 0.0 1.7 0.00 0.00 0.00 1 1010.6
20260509133613 72 273 0.0 1.7 0.00 0.00 0.00 1 1010.6
20260509133113 72 321 0.0 1.7 0.00 0.00 0.00 1 1010.4
20260509132613 71 326 0.0 1.7 0.00 0.00 0.00 1 1010.1
20260509132112 71 296 0.0 1.7 0.00 0.00 0.00 1 1009.9
20260509131608 71 296 0.0 1.7 0.00 0.00 0.00 1 1010.0
20260509131112 71 296 0.0 0.9 0.00 0.00 0.00 1 1010.1
20260509131108 71 296 0.0 0.9 0.00 0.00 0.00 1 1009.9
20260509130109 71 296 0.9 2.6 0.00 0.00 0.00 1 1010.1
20260509125609 71 296 0.9 2.6 0.00 0.00 0.00 1 1010.2
20260509125109 71 80 0.9 1.7 0.00 0.00 0.00 1 1010.0
20260509124613 71 0 1.7 5.2 0.00 0.00 0.00 1 1010.2
20260509124609 71 71 0.9 2.6 0.00 0.00 0.00 1 1009.9
20260509123612 70 156 3.5 7.8 0.00 0.00 0.00 1 1008.1
20260509123608 70 146 2.6 7.8 0.00 0.00 0.00 1 1008.9
20260509122608 70 171 3.5 7.8 0.00 0.00 0.00 1 1008.1
20260509122107 70 177 2.6 7.8 0.00 0.00 0.00 1 1008.1
20260509121607 70 177 2.6 7.8 0.00 0.00 0.00 1 1008.1
20260509121106 69 153 2.6 7.8 0.00 0.00 0.00 1 1007.9
20260509120606 69 152 4.3 8.7 0.00 0.00 0.00 1 1007.8
20260509120106 69 194 4.3 9.6 0.00 0.00 0.00 1 1007.6
20260509115608 69 169 4.3 10.4 0.00 0.00 0.00 1 1007.6
20260509115604 69 150 5.2 10.4 0.00 0.00 0.00 1 1007.3
20260509114603 69 151 4.3 8.7 0.00 0.00 0.00 1 1008.0
20260509114102 70 237 3.5 8.7 0.00 0.00 0.00 1 1008.3
20260509113600 70 201 2.6 7.8 0.00 0.00 0.00 1 1008.7
20260509113100 70 193 0.9 4.3 0.00 0.00 0.00 1 1008.9
20260509112600 70 173 0.9 3.5 0.00 0.00 0.00 1 1009.3
20260509112058 70 233 0.9 7.0 0.00 0.00 0.00 1 1009.6
20260509111601 70 194 2.6 6.1 0.00 0.00 0.00 1 1009.5
20260509111557 70 236 1.7 7.8 0.00 0.00 0.00 1 1009.7
20260509110557 70 160 3.5 9.6 0.00 0.00 0.00 1 1009.3
20260509110056 70 159 3.5 9.6 0.00 0.00 0.00 1 1009.1
20260509105556 70 165 3.5 9.6 0.00 0.00 0.00 1 1009.4
20260509105056 70 180 2.6 7.0 0.00 0.00 0.00 1 1009.8
20260509104555 70 203 2.6 7.0 0.00 0.00 0.00 1 1010.0
20260509104055 70 143 2.6 6.1 0.00 0.00 0.00 1 1010.0
20260509103558 70 166 2.6 7.0 0.00 0.00 0.00 1 1010.2
20260509103554 70 171 2.6 7.0 0.00 0.00 0.00 1 1010.1
20260509102558 69 171 0.9 2.6 0.00 0.00 0.00 1 1010.5
20260509102554 69 158 1.7 5.2 0.00 0.00 0.00 1 1010.3
20260509101552 69 167 0.0 2.6 0.00 0.00 0.00 1 1010.5
20260509101058 69 322 0.0 1.7 0.00 0.00 0.00 1 1010.6
20260509101053 69 215 0.0 1.7 0.00 0.00 0.00 1 1010.5
20260509100056 69 328 0.0 0.9 0.00 0.00 0.00 1 1010.7
20260509100052 69 315 0.0 1.7 0.00 0.00 0.00 1 1010.7
20260509095051 69 328 0.0 0.9 0.00 0.00 0.00 1 1010.7
20260509094554 69 119 0.0 0.0 0.00 0.00 0.00 1 1010.7
20260509094550 69 348 0.0 0.9 0.00 0.00 0.00 1 1010.8
20260509093548 69 119 0.0 0.0 0.00 0.00 0.00 1 1010.9
20260509093048 69 119 0.0 0.0 0.00 0.00 0.00 1 1010.8
20260509092551 69 119 0.0 0.0 0.00 0.00 0.00 1 1010.8
20260509092547 69 119 0.0 0.0 0.00 0.00 0.00 1 1010.9
20260509091546 69 119 0.0 0.0 0.00 0.00 0.00 1 1010.8
20260509091046 69 119 0.0 0.0 0.00 0.00 0.00 1 1010.9
20260509090546 69 119 0.0 0.0 0.00 0.00 0.00 1 1010.9
20260509090046 69 119 0.0 0.0 0.00 0.00 0.00 1 1010.6
20260509085545 69 119 0.0 0.0 0.00 0.00 0.00 1 1010.6
20260509085042 69 119 0.0 0.9 0.00 0.00 0.00 1 1010.7
20260509084542 69 119 0.0 0.9 0.00 0.00 0.00 1 1010.8
20260509084043 69 119 0.0 0.9 0.00 0.00 0.00 1 1010.9
20260509083542 69 148 0.0 0.9 0.00 0.00 0.00 1 1011.0
20260509083042 69 146 0.0 0.9 0.00 0.00 0.00 1 1011.1
20260509082541 69 146 0.0 0.0 0.00 0.00 0.00 1 1011.1
20260509082042 69 146 0.0 0.0 0.00 0.00 0.00 1 1011.1
20260509081543 69 146 0.0 0.0 0.00 0.00 0.00 1 1011.1
20260509081040 70 146 0.0 0.0 0.00 0.00 0.00 1 1011.1
20260509080540 70 146 0.0 0.9 0.00 0.00 0.00 1 1011.0
20260509080040 70 146 0.0 1.7 0.00 0.00 0.00 1 1010.9
20260509075537 70 146 0.9 1.7 0.00 0.00 0.00 1 1010.7
20260509075042 70 171 0.9 3.5 0.00 0.00 0.00 1 1010.6
20260509075037 70 194 0.9 1.7 0.00 0.00 0.00 1 1010.6
20260509074036 70 142 0.9 3.5 0.00 0.00 0.00 1 1010.4
20260509073535 70 160 1.7 3.5 0.00 0.00 0.00 1 1010.4
20260509073034 69 188 1.7 4.3 0.00 0.00 0.00 1 1010.5
20260509072533 69 193 1.7 4.3 0.00 0.00 0.00 1 1010.3
20260509072038 69 183 0.0 0.0 0.00 0.00 0.00 1 1010.8
20260509072034 69 165 0.9 3.5 0.00 0.00 0.00 1 1010.2
20260509071637 69 183 0.0 1.7 0.00 0.00 0.00 1 1010.4
20260509071137 69 183 0.0 0.9 0.00 0.00 0.00 1 1010.8
20260509070030 70 183 0.0 0.9 0.00 0.00 0.00 1 1010.9
20260509065530 70 183 0.0 0.9 0.00 0.00 0.00 1 1011.0
20260509065026 70 183 0.0 0.0 0.00 0.00 0.00 1 1011.0
20260509064524 70 183 0.0 0.9 0.00 0.00 0.00 1 1011.0
20260509064024 69 183 0.0 0.9 0.00 0.00 0.00 1 1010.8
20260509063529 69 183 0.0 1.7 0.00 0.00 0.00 1 1010.6
20260509063525 69 183 0.0 0.9 0.00 0.00 0.00 1 1010.6
20260509063129 69 183 0.0 1.7 0.00 0.00 0.00 1 1010.6
20260509062024 69 183 0.0 0.0 0.00 0.00 0.00 1 1010.4
20260509061528 69 183 0.0 0.0 0.00 0.00 0.00 1 1010.2
20260509061524 69 183 0.0 0.0 0.00 0.00 0.00 1 1010.2
20260509060524 69 183 0.0 0.9 0.00 0.00 0.00 1 1010.1
20260509060024 69 183 0.0 1.7 0.00 0.00 0.00 1 1010.0
20260509055522 69 183 0.0 1.7 0.00 0.00 0.00 1 1009.9
20260509055019 69 183 0.9 1.7 0.00 0.00 0.00 1 1009.9
20260509054519 69 183 0.9 1.7 0.00 0.00 0.00 1 1009.9
20260509054019 69 183 0.0 0.9 0.00 0.00 0.00 1 1010.0
20260509053523 69 183 0.0 0.0 0.00 0.00 0.00 1 1010.0
20260509053519 69 183 0.0 0.9 0.00 0.00 0.00 1 1009.9
20260509052515 69 183 0.0 0.0 0.00 0.00 0.00 1 1010.1
20260509052015 70 183 0.0 0.0 0.00 0.00 0.00 1 1010.1
20260509051516 70 183 0.0 0.0 0.00 0.00 0.00 1 1010.3
20260509051015 70 183 0.0 0.0 0.00 0.00 0.00 1 1010.3
20260509050513 70 183 0.0 0.9 0.00 0.00 0.00 1 1010.3
20260509050013 70 183 0.0 0.9 0.00 0.00 0.00 1 1010.2
20260509045513 70 183 0.0 0.0 0.00 0.00 0.00 1 1010.1
20260509045012 70 183 0.0 0.0 0.00 0.00 0.00 1 1010.2
20260509044511 69 183 0.0 0.0 0.00 0.00 0.00 1 1010.3
20260509044015 69 183 0.0 0.9 0.00 0.00 0.00 1 1010.3
20260509044011 69 183 0.0 0.0 0.00 0.00 0.00 1 1010.3
20260509043009 69 183 0.0 0.9 0.00 0.00 0.00 1 1010.2
20260509042509 69 183 0.0 0.0 0.00 0.00 0.00 1 1010.2
20260509042009 69 183 0.0 0.0 0.00 0.00 0.00 1 1010.2
20260509041509 69 183 0.0 0.0 0.00 0.00 0.00 1 1010.2
20260509041009 69 183 0.0 0.0 0.00 0.00 0.00 1 1010.2
20260509040509 69 183 0.0 0.0 0.00 0.00 0.00 1 1010.1
20260509040009 69 183 0.0 0.0 0.00 0.00 0.00 1 1010.1
20260509035509 70 183 0.0 0.0 0.00 0.00 0.00 1 1009.9
20260509035010 70 183 0.0 0.0 0.00 0.00 0.00 1 1009.8
20260509034513 70 183 0.0 0.0 0.00 0.00 0.00 1 1009.7
20260509034509 70 183 0.0 0.0 0.00 0.00 0.00 1 1009.7
20260509033509 70 183 0.0 0.0 0.00 0.00 0.00 1 1009.6
20260509033009 70 183 0.0 0.0 0.00 0.00 0.00 1 1009.6
20260509032508 70 183 0.0 0.0 0.00 0.00 0.00 1 1009.5
20260509032007 70 183 0.0 0.0 0.00 0.00 0.00 1 1009.5
20260509031507 70 183 0.0 0.0 0.00 0.00 0.00 1 1009.5
20260509031004 70 183 0.0 0.0 0.00 0.00 0.00 1 1009.5
20260509030503 71 183 0.0 0.0 0.00 0.00 0.00 1 1009.3
20260509030007 71 183 0.0 0.0 0.00 0.00 0.00 1 1009.0
20260509030003 71 183 0.0 0.0 0.00 0.00 0.00 1 1009.3
20260509025003 71 183 0.0 0.0 0.00 0.00 0.00 1 1009.1
20260509024501 71 183 0.0 0.0 0.00 0.00 0.00 1 1009.1
20260509024001 71 183 0.0 0.9 0.00 0.00 0.00 1 1009.0
20260509023500 71 183 0.0 0.9 0.00 0.00 0.00 1 1008.8
20260509023004 71 183 0.0 0.0 0.00 0.00 0.00 1 1008.7
20260509022959 71 183 0.0 0.9 0.00 0.00 0.00 1 1008.7
20260509021958 72 183 0.0 0.0 0.00 0.00 0.00 1 1008.8
20260509021502 72 183 0.0 0.9 0.00 0.00 0.00 1 1008.7
20260509021458 72 183 0.0 0.0 0.00 0.00 0.00 1 1008.8
20260509020459 72 183 0.0 1.7 0.00 0.00 0.00 1 1008.5
20260509015959 72 183 0.0 1.7 0.00 0.00 0.00 1 1008.4
20260509015458 72 183 0.0 0.9 0.00 0.00 0.00 1 1008.4
20260509014959 72 183 0.0 0.9 0.00 0.00 0.00 1 1008.4
20260509014459 72 183 0.0 0.9 0.00 0.00 0.00 1 1008.3
20260509013959 73 183 0.0 0.9 0.00 0.00 0.00 1 1008.3
20260509013459 73 183 0.0 0.9 0.00 0.00 0.00 1 1008.3
20260509012959 73 183 0.0 0.9 0.00 0.00 0.00 1 1008.4
20260509012456 73 183 0.0 0.9 0.00 0.00 0.00 1 1008.3
20260509011956 73 183 0.0 0.9 0.00 0.00 0.00 1 1008.4
20260509011456 73 183 0.0 0.9 0.00 0.00 0.00 1 1008.4
20260509010954 73 183 0.0 0.9 0.00 0.00 0.00 1 1008.4
20260509010455 73 183 0.0 1.7 0.00 0.00 0.00 1 1008.5
20260509005954 73 183 0.0 1.7 0.00 0.00 0.00 1 1008.5
20260509005454 73 183 0.0 1.7 0.00 0.00 0.00 1 1008.5
20260509004955 73 183 0.0 1.7 0.00 0.00 0.00 1 1008.5
20260509004456 73 183 0.9 2.6 0.00 0.00 0.00 1 1008.6
20260509003956 73 183 0.9 3.5 0.00 0.00 0.00 1 1008.6
20260509003452 73 170 0.9 3.5 0.00 0.00 0.00 1 1008.6
20260509002952 73 155 0.9 4.3 0.00 0.00 0.00 1 1008.6
20260509002452 73 171 0.9 4.3 0.00 0.00 0.00 1 1008.6
20260509001954 73 188 0.9 4.3 0.00 0.00 0.00 1 1008.5
20260509001457 73 174 1.7 5.2 0.00 0.00 0.00 1 1008.4
20260509001453 73 145 0.9 5.2 0.00 0.00 0.00 1 1008.5
20260509000455 73 169 1.7 4.3 0.00 0.00 0.00 1 1008.5
20260508235952 73 200 1.7 4.3 0.00 0.00 0.00 1 1008.5
20260508235452 73 169 1.7 7.0 0.00 0.00 0.00 1 1008.5
20260508234954 73 135 1.7 5.2 0.00 0.00 0.00 1 1008.6
20260508234950 73 138 1.7 7.0 0.00 0.00 0.00 1 1008.5
20260508233950 73 155 0.9 4.3 0.00 0.00 0.00 1 1008.6
20260508233451 73 165 1.7 6.1 0.00 0.00 0.00 1 1008.6
20260508232953 73 172 1.7 6.1 0.00 0.00 0.00 1 1008.5
20260508232949 73 182 1.7 5.2 0.00 0.00 0.00 1 1008.6
20260508231946 73 123 1.7 6.1 0.00 0.00 0.00 1 1008.6
20260508231446 73 131 1.7 7.0 0.00 0.00 0.00 1 1008.7
20260508230950 73 169 1.7 5.2 0.00 0.00 0.00 1 1008.5
20260508230946 73 157 1.7 7.0 0.00 0.00 0.00 1 1008.6
20260508225945 73 116 0.9 5.2 0.00 0.00 0.00 1 1008.5
20260508225443 73 181 0.9 6.1 0.00 0.00 0.00 1 1008.5
20260508224943 73 80 1.7 6.1 0.00 0.00 0.00 1 1008.5
20260508224441 73 170 1.7 5.2 0.00 0.00 0.00 1 1008.6
20260508223940 73 174 1.7 6.1 0.00 0.00 0.00 1 1008.7
20260508223444 73 179 1.7 6.1 0.00 0.00 0.00 1 1008.7
20260508223440 73 150 1.7 6.1 0.00 0.00 0.00 1 1008.7
20260508222439 73 190 1.7 5.2 0.00 0.00 0.00 1 1008.9
20260508221939 73 199 0.9 5.2 0.00 0.00 0.00 1 1008.9
20260508221439 73 185 1.7 5.2 0.00 0.00 0.00 1 1009.0
20260508220941 73 175 1.7 4.3 0.00 0.00 0.00 1 1009.3
20260508220937 73 213 1.7 5.2 0.00 0.00 0.00 1 1009.0
20260508215933 73 140 1.7 4.3 0.00 0.00 0.00 1 1009.1
20260508215432 73 192 1.7 4.3 0.00 0.00 0.00 1 1009.3
20260508214933 72 152 0.9 3.5 0.00 0.00 0.00 1 1009.3
20260508214430 72 142 0.9 4.3 0.00 0.00 0.00 1 1009.5
20260508213931 72 161 0.9 4.3 0.00 0.00 0.00 1 1009.6
20260508213430 72 176 0.9 4.3 0.00 0.00 0.00 1 1009.7
20260508212928 72 192 1.7 4.3 0.00 0.00 0.00 1 1009.8
20260508212427 72 204 0.9 3.5 0.00 0.00 0.00 1 1009.7
20260508211926 72 123 0.9 1.7 0.00 0.00 0.00 1 1009.8
20260508211426 72 162 0.9 3.5 0.00 0.00 0.00 1 1009.8
20260508210926 72 121 1.7 3.5 0.00 0.00 0.00 1 1009.9
20260508210426 72 119 1.7 3.5 0.00 0.00 0.00 1 1009.9
20260508205926 72 88 0.9 3.5 0.00 0.00 0.00 1 1009.8
20260508205426 71 76 0.9 3.5 0.00 0.00 0.00 1 1010.0
20260508204926 71 184 0.9 2.6 0.00 0.00 0.00 1 1010.3
20260508204424 71 92 0.9 2.6 0.00 0.00 0.00 1 1010.3
20260508203923 71 92 0.9 4.3 0.00 0.00 0.00 1 1010.4
20260508203421 71 153 0.9 4.3 0.00 0.00 0.00 1 1010.4
20260508202926 71 131 0.9 4.3 0.00 0.00 0.00 1 1010.6
20260508202922 71 96 0.9 4.3 0.00 0.00 0.00 1 1010.5
20260508201920 71 138 0.9 3.5 0.00 0.00 0.00 1 1010.6
20260508201420 71 171 0.9 3.5 0.00 0.00 0.00 1 1010.7
20260508200920 70 206 0.9 3.5 0.00 0.00 0.00 1 1010.7
20260508200416 70 130 1.7 3.5 0.00 0.00 0.00 1 1010.8
20260508195914 70 123 0.9 3.5 0.00 0.00 0.00 1 1010.8
20260508195414 70 167 0.9 3.5 0.00 0.00 0.00 1 1010.8
20260508194918 70 93 0.9 4.3 0.00 0.00 0.00 1 1010.8
20260508194914 70 169 0.9 1.7 0.00 0.00 0.00 1 1010.9
20260508193917 70 186 0.0 4.3 0.00 0.00 0.00 1 1010.9
20260508193913 69 179 0.0 1.7 0.00 0.00 0.00 1 1011.0
20260508192912 69 182 0.0 2.6 0.00 0.00 0.00 1 1011.1
20260508192412 70 92 1.7 4.3 0.00 0.00 0.00 1 1011.1
20260508191911 70 170 1.7 5.2 0.00 0.00 0.00 1 1011.2
20260508191410 70 198 0.9 5.2 0.00 0.00 0.00 1 1011.2
20260508190908 69 136 0.0 2.6 0.00 0.00 0.00 1 1011.2
20260508190412 69 84 0.9 1.7 0.00 0.00 0.00 1 1011.4
20260508190408 69 167 0.9 2.6 0.00 0.00 0.00 1 1011.3
20260508185409 69 84 0.9 2.6 0.00 0.00 0.00 1 1011.4
20260508184907 69 84 0.9 4.3 0.00 0.00 0.00 1 1011.4
20260508184407 69 71 0.9 4.3 0.00 0.00 0.00 1 1011.5
20260508183913 69 79 0.9 3.5 0.00 0.00 0.00 1 1011.6
20260508183908 69 189 0.9 3.5 0.00 0.00 0.00 1 1011.5
20260508182908 69 79 1.7 3.5 0.00 0.00 0.00 1 1011.6
20260508182406 69 79 1.7 3.5 0.00 0.00 0.00 1 1011.7
20260508181905 69 76 0.9 2.6 0.00 0.00 0.00 1 1011.8
20260508181403 68 74 0.9 2.6 0.00 0.00 0.00 1 1011.8
20260508180903 68 90 0.9 1.7 0.00 0.00 0.00 1 1011.9
20260508180403 68 90 0.9 1.7 0.00 0.00 0.00 1 1012.1
20260508175904 68 115 0.0 1.7 0.00 0.00 0.00 1 1012.1
20260508175404 68 115 0.0 1.7 0.00 0.00 0.00 1 1012.3
20260508174904 68 115 0.0 1.7 0.00 0.00 0.00 1 1012.4
20260508174403 68 115 0.0 1.7 0.00 0.00 0.00 1 1012.4